Total_Precipitation_Accumulation
0.31 0.32 0.37 0.37 0.36 0.35 0.35 0.36 0.38 0.34 0.34 0.36 0.40 0.43 0.43 0.50 0.68 0.86 0.83 0.74 0.79 0.89 0.98 1.09 1.13 1.17 1.16 1.04 0.98 0.95 0.96 1.05 0.99 0.83 0.78 0.80 0.69 0.53 0.46 0.44 0.41 0.40 0.36
0.22 0.24 0.26 0.31 0.33 0.35 0.36 0.38 0.37 0.33 0.30 0.28 0.31 0.34 0.37 0.44 0.61 0.91 1.06 1.08 1.05 0.98 1.04 1.23 1.31 1.26 1.15 1.06 1.05 0.99 0.98 1.07 1.02 0.92 0.90 0.85 0.77 0.67 0.57 0.51 0.43 0.40 0.38
0.17 0.19 0.22 0.25 0.29 0.35 0.38 0.37 0.34 0.34 0.33 0.31 0.32 0.35 0.39 0.42 0.48 0.67 0.88 1.00 1.03 0.99 1.05 1.10 1.13 1.19 1.15 1.07 1.01 0.97 0.96 1.07 1.07 0.97 1.03 1.02 0.92 0.80 0.67 0.56 0.48 0.46 0.39
0.17 0.21 0.25 0.29 0.32 0.34 0.36 0.39 0.38 0.39 0.39 0.38 0.40 0.42 0.42 0.39 0.39 0.51 0.67 0.77 0.82 0.87 0.91 0.95 0.98 1.01 1.07 1.12 1.06 1.00 1.01 1.04 1.06 1.05 1.08 1.21 1.12 0.95 0.78 0.64 0.55 0.51 0.46
0.19 0.22 0.24 0.27 0.30 0.30 0.33 0.37 0.40 0.42 0.43 0.46 0.49 0.48 0.43 0.38 0.38 0.51 0.58 0.53 0.58 0.63 0.66 0.67 0.77 0.94 1.03 1.08 1.01 0.99 1.05 1.05 1.05 1.10 1.13 1.26 1.28 1.13 0.90 0.69 0.60 0.57 0.54
0.30 0.30 0.27 0.30 0.31 0.29 0.32 0.35 0.39 0.42 0.47 0.52 0.52 0.54 0.51 0.38 0.39 0.43 0.41 0.38 0.42 0.49 0.52 0.51 0.52 0.63 0.79 0.90 0.90 0.89 0.94 1.00 1.05 1.08 1.15 1.23 1.30 1.21 1.04 0.88 0.73 0.62 0.58
0.36 0.42 0.43 0.42 0.42 0.40 0.41 0.46 0.50 0.57 0.59 0.61 0.59 0.58 0.55 0.50 0.42 0.35 0.30 0.30 0.36 0.44 0.48 0.48 0.39 0.38 0.54 0.66 0.75 0.78 0.77 0.77 0.86 1.02 1.14 1.15 1.27 1.33 1.26 1.05 0.94 0.82 0.64
0.55 0.63 0.69 0.70 0.70 0.71 0.74 0.73 0.74 0.77 0.76 0.74 0.71 0.71 0.75 0.69 0.57 0.45 0.37 0.30 0.33 0.39 0.44 0.45 0.45 0.45 0.46 0.52 0.64 0.72 0.75 0.72 0.70 0.77 0.92 1.10 1.27 1.43 1.42 1.29 1.19 1.04 0.85
0.72 0.80 0.86 0.90 0.92 0.92 0.90 0.90 0.94 1.00 0.98 0.95 0.92 0.92 0.95 0.98 0.87 0.67 0.56 0.46 0.45 0.46 0.50 0.51 0.51 0.48 0.45 0.40 0.48 0.55 0.60 0.69 0.67 0.68 0.78 0.98 1.16 1.31 1.47 1.41 1.28 1.10 0.90
0.63 0.71 0.85 0.98 1.04 1.00 0.98 1.03 1.10 1.17 1.15 1.13 1.12 1.12 1.12 1.15 1.04 0.77 0.67 0.61 0.66 0.67 0.71 0.68 0.54 0.45 0.39 0.34 0.40 0.48 0.50 0.53 0.62 0.68 0.72 0.82 0.97 1.09 1.24 1.24 1.10 1.03 0.87
0.67 0.73 0.82 0.93 1.03 1.01 1.04 1.07 1.14 1.18 1.19 1.18 1.13 1.10 1.11 1.14 1.05 0.81 0.72 0.69 0.74 0.80 0.75 0.72 0.66 0.50 0.37 0.32 0.33 0.41 0.44 0.52 0.61 0.67 0.78 0.90 1.06 1.17 1.17 1.14 1.08 0.94 0.86
0.83 0.89 0.96 1.03 1.01 0.99 1.08 1.14 1.22 1.28 1.27 1.23 1.24 1.17 1.11 1.10 1.00 0.82 0.67 0.63 0.73 0.85 0.85 0.80 0.75 0.59 0.42 0.37 0.32 0.31 0.33 0.37 0.52 0.60 0.66 0.79 0.94 1.10 1.19 1.24 1.22 1.07 0.89
0.87 0.91 1.00 1.07 1.10 1.10 1.15 1.20 1.34 1.42 1.40 1.33 1.32 1.32 1.24 1.16 1.12 0.91 0.72 0.62 0.69 0.81 0.93 0.94 0.82 0.67 0.55 0.46 0.44 0.42 0.38 0.37 0.50 0.60 0.61 0.66 0.74 0.89 1.17 1.39 1.49 1.41 1.14
0.71 0.73 0.78 0.88 0.95 1.05 1.17 1.19 1.24 1.32 1.38 1.41 1.37 1.30 1.25 1.24 1.27 1.12 0.92 0.77 0.78 0.90 1.00 1.02 0.90 0.82 0.72 0.61 0.57 0.52 0.46 0.44 0.49 0.58 0.62 0.68 0.79 0.93 1.11 1.31 1.50 1.53 1.37
0.65 0.65 0.72 0.80 0.88 1.02 1.16 1.21 1.14 1.16 1.24 1.23 1.16 1.12 1.13 1.15 1.19 1.13 0.98 0.91 0.92 1.01 1.10 1.20 1.15 1.06 0.98 0.88 0.80 0.74 0.69 0.63 0.57 0.60 0.73 0.79 0.87 0.91 1.00 1.14 1.35 1.46 1.32
0.65 0.65 0.68 0.73 0.83 0.95 1.07 1.12 0.99 0.85 0.84 0.83 0.75 0.68 0.66 0.69 0.78 0.81 0.75 0.70 0.74 0.85 0.99 1.16 1.15 1.07 1.04 1.02 0.99 0.93 0.88 0.82 0.77 0.76 0.81 0.87 0.90 0.94 1.00 1.10 1.22 1.30 1.26
0.68 0.63 0.65 0.68 0.74 0.79 0.88 0.99 1.02 0.86 0.67 0.59 0.48 0.39 0.36 0.39 0.52 0.61 0.66 0.64 0.64 0.68 0.81 0.99 1.01 1.00 1.02 1.06 1.04 0.96 0.88 0.89 0.93 0.91 0.87 0.91 0.97 0.99 1.03 1.10 1.15 1.23 1.26
0.82 0.72 0.63 0.63 0.69 0.74 0.79 0.86 0.96 1.00 0.91 0.72 0.50 0.31 0.27 0.30 0.40 0.54 0.66 0.65 0.68 0.67 0.73 0.86 0.92 0.95 0.99 1.05 1.03 1.02 0.98 1.01 1.04 1.00 0.97 0.98 1.06 1.08 1.06 1.07 1.14 1.17 1.22
0.73 0.77 0.68 0.63 0.66 0.72 0.75 0.79 0.86 0.93 1.00 0.97 0.74 0.45 0.30 0.32 0.41 0.57 0.67 0.67 0.76 0.78 0.80 0.86 0.90 0.91 0.94 1.02 1.04 1.05 1.06 1.10 1.09 1.10 1.10 1.10 1.16 1.21 1.12 1.07 1.13 1.19 1.16
0.58 0.54 0.53 0.59 0.63 0.68 0.73 0.76 0.81 0.89 0.95 0.98 0.87 0.64 0.39 0.35 0.45 0.63 0.72 0.79 0.85 0.86 0.86 0.86 0.90 0.92 0.95 0.98 1.02 1.03 1.06 1.11 1.11 1.11 1.16 1.19 1.19 1.20 1.13 1.10 1.09 1.14 1.09
0.52 0.45 0.35 0.46 0.60 0.66 0.72 0.77 0.78 0.84 0.91 0.94 0.85 0.55 0.34 0.35 0.49 0.65 0.79 0.88 0.88 0.89 0.88 0.88 0.90 0.88 0.89 0.93 0.96 0.98 1.07 1.11 1.11 1.11 1.15 1.20 1.21 1.18 1.13 1.12 1.09 1.10 1.13
0.52 0.51 0.38 0.41 0.54 0.60 0.63 0.76 0.80 0.82 0.85 0.87 0.78 0.52 0.40 0.45 0.59 0.72 0.88 0.93 0.88 0.87 0.84 0.85 0.85 0.84 0.82 0.86 0.95 1.02 1.09 1.11 1.09 1.08 1.11 1.15 1.16 1.15 1.12 1.10 1.12 1.15 1.16
0.45 0.50 0.41 0.39 0.49 0.48 0.55 0.74 0.78 0.78 0.82 0.82 0.68 0.57 0.55 0.66 0.76 0.86 0.95 0.95 0.90 0.87 0.85 0.84 0.82 0.79 0.74 0.76 0.80 0.88 1.00 1.05 1.01 0.99 1.05 1.05 1.07 1.05 1.00 0.97 0.99 1.05 1.08
0.39 0.47 0.40 0.33 0.38 0.47 0.59 0.70 0.76 0.74 0.77 0.80 0.71 0.61 0.62 0.71 0.79 0.84 0.89 0.87 0.80 0.81 0.81 0.78 0.73 0.69 0.68 0.74 0.78 0.75 0.75 0.75 0.75 0.79 0.86 0.90 0.95 0.99 0.95 0.91 0.95 0.97 1.03
0.40 0.46 0.39 0.30 0.32 0.41 0.56 0.68 0.75 0.76 0.77 0.76 0.68 0.62 0.63 0.69 0.75 0.74 0.71 0.70 0.69 0.70 0.67 0.66 0.68 0.67 0.63 0.57 0.58 0.56 0.55 0.51 0.49 0.54 0.66 0.76 0.81 0.89 0.94 0.96 1.00 1.06 1.08
0.36 0.42 0.38 0.30 0.28 0.36 0.51 0.61 0.68 0.72 0.74 0.73 0.69 0.67 0.69 0.71 0.66 0.62 0.62 0.62 0.62 0.62 0.59 0.58 0.58 0.55 0.53 0.49 0.45 0.45 0.42 0.38 0.36 0.39 0.46 0.57 0.68 0.79 0.86 0.88 0.91 0.99 1.04